This is the latest recevied weather packets stored in our database for station/object N3SBK. If no packets are shown the sender has not sent any weather packets the latest 10 day(s).
| Time | Temp. | Humidity | Pressure | Rain* | Wind** | Luminosity | Snow |
|---|---|---|---|---|---|---|---|
| 1787636742 | 16.11° C | 81% | 1009.9 hPa | 0 mm | - | 0 W/m² | - |
| 1787636437 | 16.11° C | 81% | 1010 hPa | 0 mm | - | 0 W/m² | - |
| 1787636128 | 16.11° C | 81% | 1009.9 hPa | 0 mm | - | 0 W/m² | - |
| 1787635828 | 16.11° C | 82% | 1010 hPa | 0 mm | - | 0 W/m² | - |
| 1787635524 | 16.11° C | 81% | 1009.9 hPa | 0 mm | - | 0 W/m² | - |
| 1787635220 | 16.11° C | 81% | 1009.9 hPa | 0 mm | - | 0 W/m² | - |
| 1787634915 | 16.11° C | 80% | 1010 hPa | 0 mm | - | 0 W/m² | - |
| 1787634609 | 16.11° C | 81% | 1010 hPa | 0 mm | - | 0 W/m² | - |
| 1787634305 | 16.11° C | 83% | 1010 hPa | 0 mm | - | 0 W/m² | - |
| 1787634000 | 16.11° C | 82% | 1010.1 hPa | 0 mm | - | 0 W/m² | - |
| 1787633696 | 16.11° C | 80% | 1010 hPa | 0 mm | - | 0 W/m² | - |
| 1787633393 | 16.11° C | 79% | 1010.1 hPa | 0 mm | - | 0 W/m² | - |
| 1787633088 | 16.11° C | 79% | 1010.3 hPa | 0 mm | - | 0 W/m² | - |
| 1787632784 | 16.11° C | 79% | 1010 hPa | 0 mm | - | 0 W/m² | - |
| 1787632479 | 16.11° C | 79% | 1010.1 hPa | 0 mm | - | 0 W/m² | - |
| 1787632179 | 16.11° C | 82% | 1010 hPa | 0 mm | - | 0 W/m² | - |
| 1787631874 | 16.11° C | 82% | 1010 hPa | 0 mm | - | 0 W/m² | - |
| 1787631571 | 16.11° C | 83% | 1010.1 hPa | 0 mm | - | 0 W/m² | - |
| 1787631267 | 16.11° C | 82% | 1010 hPa | 0 mm | - | 0 W/m² | - |
| 1787630967 | 16.11° C | 82% | 1010 hPa | 0 mm | - | 0 W/m² | - |
| 1787630662 | 16.11° C | 82% | 1010.1 hPa | 0 mm | - | 0 W/m² | - |
| 1787630361 | 16.11° C | 82% | 1010 hPa | 0 mm | - | 0 W/m² | - |
| 1787630057 | 16.11° C | 82% | 1009.9 hPa | 0 mm | - | 0 W/m² | - |
| 1787629754 | 16.11° C | 82% | 1010.1 hPa | 0 mm | - | 0 W/m² | - |
| 1787629448 | 16.11° C | 82% | 1010 hPa | 0 mm | - | 0 W/m² | - |
* Rain latest hour (hover to see other rain measurements)
** Current wind speed in m/s (hover to see current wind gust speed)